Year,Month,Day,Hour,Minute,Value (Times are PST for insolation in W/m^2)
2014,07,02,00,00,0.00
2014,07,02,00,01,0.00
2014,07,02,00,02,0.00
2014,07,02,00,03,0.00
2014,07,02,00,04,0.00
2014,07,02,00,05,0.00
2014,07,02,00,06,0.00
2014,07,02,00,07,0.00
2014,07,02,00,08,0.00
2014,07,02,00,09,0.00
2014,07,02,00,10,0.00
2014,07,02,00,11,0.00
2014,07,02,00,12,0.00
2014,07,02,00,13,0.00
2014,07,02,00,14,0.00
2014,07,02,00,15,0.00
2014,07,02,00,16,0.00
2014,07,02,00,17,0.00
2014,07,02,00,18,0.00
2014,07,02,00,19,0.00
2014,07,02,00,20,0.00
2014,07,02,00,21,0.00
2014,07,02,00,22,0.00
2014,07,02,00,23,0.00
2014,07,02,00,24,0.00
2014,07,02,00,25,0.00
2014,07,02,00,26,0.00
2014,07,02,00,27,0.00
2014,07,02,00,28,0.00
2014,07,02,00,29,0.00
2014,07,02,00,30,0.00
2014,07,02,00,31,0.00
2014,07,02,00,32,0.00
2014,07,02,00,33,0.00
2014,07,02,00,34,0.00
2014,07,02,00,35,0.00
2014,07,02,00,36,0.00
2014,07,02,00,37,0.00
2014,07,02,00,38,0.00
2014,07,02,00,39,0.00
2014,07,02,00,40,0.00
2014,07,02,00,41,0.00
2014,07,02,00,42,0.00
2014,07,02,00,43,0.00
2014,07,02,00,44,0.00
2014,07,02,00,45,0.00
2014,07,02,00,46,0.00
2014,07,02,00,47,0.00
2014,07,02,00,48,0.00
2014,07,02,00,49,0.00
2014,07,02,00,50,0.00
2014,07,02,00,51,0.00
2014,07,02,00,52,0.00
2014,07,02,00,53,0.00
2014,07,02,00,54,0.00
2014,07,02,00,55,0.00
2014,07,02,00,56,0.00
2014,07,02,00,57,0.00
2014,07,02,00,58,0.00
2014,07,02,00,59,0.00
2014,07,02,01,00,0.00
2014,07,02,01,01,0.00
2014,07,02,01,02,0.00
2014,07,02,01,03,0.00
2014,07,02,01,04,0.00
2014,07,02,01,05,0.00
2014,07,02,01,06,0.00
2014,07,02,01,07,0.00
2014,07,02,01,08,0.00
2014,07,02,01,09,0.00
2014,07,02,01,10,0.00
2014,07,02,01,11,0.00
2014,07,02,01,12,0.00
2014,07,02,01,13,0.00
2014,07,02,01,14,0.00
2014,07,02,01,15,0.00
2014,07,02,01,16,0.00
2014,07,02,01,17,0.00
2014,07,02,01,18,0.00
2014,07,02,01,19,0.00
2014,07,02,01,20,0.00
2014,07,02,01,21,0.00
2014,07,02,01,22,0.00
2014,07,02,01,23,0.00
2014,07,02,01,24,0.00
2014,07,02,01,25,0.00
2014,07,02,01,26,0.00
2014,07,02,01,27,0.00
2014,07,02,01,28,0.00
2014,07,02,01,29,0.00
2014,07,02,01,30,0.00
2014,07,02,01,31,0.00
2014,07,02,01,32,0.00
2014,07,02,01,33,0.00
2014,07,02,01,34,0.00
2014,07,02,01,35,0.00
2014,07,02,01,36,0.00
2014,07,02,01,37,0.00
2014,07,02,01,38,0.00
2014,07,02,01,39,0.00
2014,07,02,01,40,0.00
2014,07,02,01,41,0.00
2014,07,02,01,42,0.00
2014,07,02,01,43,0.00
2014,07,02,01,44,0.00
2014,07,02,01,45,0.00
2014,07,02,01,46,0.00
2014,07,02,01,47,0.00
2014,07,02,01,48,0.00
2014,07,02,01,49,0.00
2014,07,02,01,50,0.00
2014,07,02,01,51,0.00
2014,07,02,01,52,0.00
2014,07,02,01,53,0.00
2014,07,02,01,54,0.00
2014,07,02,01,55,0.00
2014,07,02,01,56,0.00
2014,07,02,01,57,0.00
2014,07,02,01,58,0.00
2014,07,02,01,59,0.00
2014,07,02,02,00,0.00
2014,07,02,02,01,0.00
2014,07,02,02,02,0.00
2014,07,02,02,03,0.00
2014,07,02,02,04,0.00
2014,07,02,02,05,0.00
2014,07,02,02,06,0.00
2014,07,02,02,07,0.00
2014,07,02,02,08,0.00
2014,07,02,02,09,0.00
2014,07,02,02,10,0.00
2014,07,02,02,11,0.00
2014,07,02,02,12,0.00
2014,07,02,02,13,0.00
2014,07,02,02,14,0.00
2014,07,02,02,15,0.00
2014,07,02,02,16,0.00
2014,07,02,02,17,0.00
2014,07,02,02,18,0.00
2014,07,02,02,19,0.00
2014,07,02,02,20,0.00
2014,07,02,02,21,0.00
2014,07,02,02,22,0.00
2014,07,02,02,23,0.00
2014,07,02,02,24,0.00
2014,07,02,02,25,0.00
2014,07,02,02,26,0.00
2014,07,02,02,27,0.00
2014,07,02,02,28,0.00
2014,07,02,02,29,0.00
2014,07,02,02,30,0.00
2014,07,02,02,31,0.00
2014,07,02,02,32,0.00
2014,07,02,02,33,0.00
2014,07,02,02,34,0.00
2014,07,02,02,35,0.00
2014,07,02,02,36,0.00
2014,07,02,02,37,0.00
2014,07,02,02,38,0.00
2014,07,02,02,39,0.00
2014,07,02,02,40,0.00
2014,07,02,02,41,0.00
2014,07,02,02,42,0.00
2014,07,02,02,43,0.00
2014,07,02,02,44,0.00
2014,07,02,02,45,0.00
2014,07,02,02,46,0.00
2014,07,02,02,47,0.00
2014,07,02,02,48,0.00
2014,07,02,02,49,0.00
2014,07,02,02,50,0.00
2014,07,02,02,51,0.00
2014,07,02,02,52,0.00
2014,07,02,02,53,0.00
2014,07,02,02,54,0.00
2014,07,02,02,55,0.00
2014,07,02,02,56,0.00
2014,07,02,02,57,0.00
2014,07,02,02,58,0.00
2014,07,02,02,59,0.00
2014,07,02,03,00,0.00
2014,07,02,03,01,0.00
2014,07,02,03,02,0.00
2014,07,02,03,03,0.00
2014,07,02,03,04,0.00
2014,07,02,03,05,0.00
2014,07,02,03,06,0.00
2014,07,02,03,07,0.00
2014,07,02,03,08,0.00
2014,07,02,03,09,0.00
2014,07,02,03,10,0.00
2014,07,02,03,11,0.00
2014,07,02,03,12,0.00
2014,07,02,03,13,0.00
2014,07,02,03,14,0.00
2014,07,02,03,15,0.00
2014,07,02,03,16,0.00
2014,07,02,03,17,0.00
2014,07,02,03,18,0.00
2014,07,02,03,19,0.00
2014,07,02,03,20,0.00
2014,07,02,03,21,0.00
2014,07,02,03,22,0.00
2014,07,02,03,23,0.00
2014,07,02,03,24,0.00
2014,07,02,03,25,0.00
2014,07,02,03,26,0.00
2014,07,02,03,27,0.00
2014,07,02,03,28,0.00
2014,07,02,03,29,0.00
2014,07,02,03,30,0.00
2014,07,02,03,31,0.00
2014,07,02,03,32,0.00
2014,07,02,03,33,0.00
2014,07,02,03,34,0.00
2014,07,02,03,35,0.00
2014,07,02,03,36,0.00
2014,07,02,03,37,0.00
2014,07,02,03,38,0.00
2014,07,02,03,39,0.00
2014,07,02,03,40,0.00
2014,07,02,03,41,0.00
2014,07,02,03,42,0.00
2014,07,02,03,43,0.00
2014,07,02,03,44,0.00
2014,07,02,03,45,0.00
2014,07,02,03,46,0.00
2014,07,02,03,47,0.00
2014,07,02,03,48,0.00
2014,07,02,03,49,0.00
2014,07,02,03,50,0.00
2014,07,02,03,51,0.00
2014,07,02,03,52,0.00
2014,07,02,03,53,0.00
2014,07,02,03,54,0.00
2014,07,02,03,55,0.00
2014,07,02,03,56,0.00
2014,07,02,03,57,0.00
2014,07,02,03,58,0.00
2014,07,02,03,59,0.00
2014,07,02,04,00,0.00
2014,07,02,04,01,0.00
2014,07,02,04,02,0.00
2014,07,02,04,03,0.00
2014,07,02,04,04,0.00
2014,07,02,04,05,0.00
2014,07,02,04,06,0.00
2014,07,02,04,07,0.00
2014,07,02,04,08,0.00
2014,07,02,04,09,0.00
2014,07,02,04,10,0.00
2014,07,02,04,11,0.00
2014,07,02,04,12,0.00
2014,07,02,04,13,0.00
2014,07,02,04,14,0.00
2014,07,02,04,15,0.00
2014,07,02,04,16,0.00
2014,07,02,04,17,0.00
2014,07,02,04,18,0.00
2014,07,02,04,19,0.00
2014,07,02,04,20,0.00
2014,07,02,04,21,0.00
2014,07,02,04,22,0.00
2014,07,02,04,23,0.00
2014,07,02,04,24,0.00
2014,07,02,04,25,0.00
2014,07,02,04,26,0.00
2014,07,02,04,27,0.00
2014,07,02,04,28,0.00
2014,07,02,04,29,0.00
2014,07,02,04,30,0.00
2014,07,02,04,31,0.00
2014,07,02,04,32,0.00
2014,07,02,04,33,0.00
2014,07,02,04,34,0.00
2014,07,02,04,35,0.00
2014,07,02,04,36,0.00
2014,07,02,04,37,0.00
2014,07,02,04,38,0.00
2014,07,02,04,39,0.00
2014,07,02,04,40,0.00
2014,07,02,04,41,0.00
2014,07,02,04,42,0.00
2014,07,02,04,43,0.00
2014,07,02,04,44,0.00
2014,07,02,04,45,0.00
2014,07,02,04,46,0.00
2014,07,02,04,47,0.00
2014,07,02,04,48,0.00
2014,07,02,04,49,0.00
2014,07,02,04,50,0.00
2014,07,02,04,51,0.00
2014,07,02,04,52,0.00
2014,07,02,04,53,0.00
2014,07,02,04,54,0.00
2014,07,02,04,55,0.00
2014,07,02,04,56,0.00
2014,07,02,04,57,0.00
2014,07,02,04,58,0.00
2014,07,02,04,59,0.00
2014,07,02,05,00,0.00
2014,07,02,05,01,0.00
2014,07,02,05,02,0.00
2014,07,02,05,03,0.00
2014,07,02,05,04,0.00
2014,07,02,05,05,0.00
2014,07,02,05,06,0.00
2014,07,02,05,07,0.00
2014,07,02,05,08,0.00
2014,07,02,05,09,0.00
2014,07,02,05,10,0.00
2014,07,02,05,11,0.00
2014,07,02,05,12,0.00
2014,07,02,05,13,0.00
2014,07,02,05,14,0.00
2014,07,02,05,15,0.00
2014,07,02,05,16,0.00
2014,07,02,05,17,0.00
2014,07,02,05,18,0.00
2014,07,02,05,19,0.00
2014,07,02,05,20,0.00
2014,07,02,05,21,0.00
2014,07,02,05,22,0.00
2014,07,02,05,23,0.00
2014,07,02,05,24,0.00
2014,07,02,05,25,0.00
2014,07,02,05,26,0.00
2014,07,02,05,27,0.00
2014,07,02,05,28,0.00
2014,07,02,05,29,0.00
2014,07,02,05,30,0.00
2014,07,02,05,31,0.00
2014,07,02,05,32,0.00
2014,07,02,05,33,0.00
2014,07,02,05,34,0.00
2014,07,02,05,35,0.00
2014,07,02,05,36,0.00
2014,07,02,05,37,0.00
2014,07,02,05,38,0.00
2014,07,02,05,39,0.00
2014,07,02,05,40,0.00
2014,07,02,05,41,0.00
2014,07,02,05,42,0.00
2014,07,02,05,43,0.00
2014,07,02,05,44,0.00
2014,07,02,05,45,0.00
2014,07,02,05,46,0.00
2014,07,02,05,47,0.00
2014,07,02,05,48,0.00
2014,07,02,05,49,1.20
2014,07,02,05,50,5.00
2014,07,02,05,51,5.00
2014,07,02,05,52,6.20
2014,07,02,05,53,7.00
2014,07,02,05,54,7.00
2014,07,02,05,55,9.00
2014,07,02,05,56,9.00
2014,07,02,05,57,9.00
2014,07,02,05,58,9.00
2014,07,02,05,59,10.30
2014,07,02,06,00,11.00
2014,07,02,06,01,11.00
2014,07,02,06,02,11.00
2014,07,02,06,03,11.00
2014,07,02,06,04,11.00
2014,07,02,06,05,11.50
2014,07,02,06,06,12.00
2014,07,02,06,07,12.00
2014,07,02,06,08,12.00
2014,07,02,06,09,12.20
2014,07,02,06,10,14.00
2014,07,02,06,11,14.00
2014,07,02,06,12,15.00
2014,07,02,06,13,16.00
2014,07,02,06,14,17.50
2014,07,02,06,15,18.00
2014,07,02,06,16,19.00
2014,07,02,06,17,19.00
2014,07,02,06,18,19.00
2014,07,02,06,19,20.00
2014,07,02,06,20,21.00
2014,07,02,06,21,21.00
2014,07,02,06,22,22.80
2014,07,02,06,23,23.00
2014,07,02,06,24,23.50
2014,07,02,06,25,25.00
2014,07,02,06,26,25.50
2014,07,02,06,27,26.00
2014,07,02,06,28,27.50
2014,07,02,06,29,28.00
2014,07,02,06,30,28.00
2014,07,02,06,31,28.00
2014,07,02,06,32,28.80
2014,07,02,06,33,30.00
2014,07,02,06,34,30.00
2014,07,02,06,35,30.00
2014,07,02,06,36,28.20
2014,07,02,06,37,28.00
2014,07,02,06,38,28.00
2014,07,02,06,39,28.00
2014,07,02,06,40,28.00
2014,07,02,06,41,28.00
2014,07,02,06,42,28.00
2014,07,02,06,43,26.20
2014,07,02,06,44,26.00
2014,07,02,06,45,26.00
2014,07,02,06,46,26.00
2014,07,02,06,47,25.50
2014,07,02,06,48,25.60
2014,07,02,06,49,26.00
2014,07,02,06,50,26.00
2014,07,02,06,51,28.50
2014,07,02,06,52,33.50
2014,07,02,06,53,36.90
2014,07,02,06,54,43.00
2014,07,02,06,55,47.90
2014,07,02,06,56,52.80
2014,07,02,06,57,61.80
2014,07,02,06,58,63.60
2014,07,02,06,59,68.80
2014,07,02,07,00,74.80
2014,07,02,07,01,76.50
2014,07,02,07,02,78.20
2014,07,02,07,03,79.00
2014,07,02,07,04,77.30
2014,07,02,07,05,75.70
2014,07,02,07,06,86.80
2014,07,02,07,07,104.10
2014,07,02,07,08,64.80
2014,07,02,07,09,68.70
2014,07,02,07,10,62.00
2014,07,02,07,11,71.80
2014,07,02,07,12,156.00
2014,07,02,07,13,133.80
2014,07,02,07,14,92.40
2014,07,02,07,15,148.50
2014,07,02,07,16,124.80
2014,07,02,07,17,72.00
2014,07,02,07,18,62.00
2014,07,02,07,19,104.20
2014,07,02,07,20,76.50
2014,07,02,07,21,84.00
2014,07,02,07,22,168.80
2014,07,02,07,23,248.00
2014,07,02,07,24,249.50
2014,07,02,07,25,250.90
2014,07,02,07,26,253.00
2014,07,02,07,27,254.00
2014,07,02,07,28,258.10
2014,07,02,07,29,262.00
2014,07,02,07,30,265.90
2014,07,02,07,31,270.00
2014,07,02,07,32,273.60
2014,07,02,07,33,281.60
2014,07,02,07,34,285.60
2014,07,02,07,35,287.40
2014,07,02,07,36,289.00
2014,07,02,07,37,291.20
2014,07,02,07,38,293.50
2014,07,02,07,39,296.60
2014,07,02,07,40,299.30
2014,07,02,07,41,300.50
2014,07,02,07,42,299.00
2014,07,02,07,43,299.00
2014,07,02,07,44,300.30
2014,07,02,07,45,301.80
2014,07,02,07,46,304.00
2014,07,02,07,47,309.30
2014,07,02,07,48,312.40
2014,07,02,07,49,317.60
2014,07,02,07,50,321.60
2014,07,02,07,51,325.60
2014,07,02,07,52,328.50
2014,07,02,07,53,336.80
2014,07,02,07,54,351.90
2014,07,02,07,55,366.50
2014,07,02,07,56,380.10
2014,07,02,07,57,399.30
2014,07,02,07,58,414.40
2014,07,02,07,59,421.00
2014,07,02,08,00,423.80
2014,07,02,08,01,419.80
2014,07,02,08,02,417.30
2014,07,02,08,03,414.20
2014,07,02,08,04,411.50
2014,07,02,08,05,384.60
2014,07,02,08,06,369.00
2014,07,02,08,07,369.00
2014,07,02,08,08,373.20
2014,07,02,08,09,387.00
2014,07,02,08,10,275.50
2014,07,02,08,11,88.50
2014,07,02,08,12,87.70
2014,07,02,08,13,90.00
2014,07,02,08,14,90.00
2014,07,02,08,15,265.00
2014,07,02,08,16,300.80
2014,07,02,08,17,408.00
2014,07,02,08,18,254.40
2014,07,02,08,19,93.60
2014,07,02,08,20,83.00
2014,07,02,08,21,367.50
2014,07,02,08,22,406.00
2014,07,02,08,23,407.00
2014,07,02,08,24,410.40
2014,07,02,08,25,412.00
2014,07,02,08,26,413.00
2014,07,02,08,27,413.00
2014,07,02,08,28,340.60
2014,07,02,08,29,329.00
2014,07,02,08,30,329.00
2014,07,02,08,31,233.00
2014,07,02,08,32,72.40
2014,07,02,08,33,61.90
2014,07,02,08,34,103.50
2014,07,02,08,35,135.00
2014,07,02,08,36,179.40
2014,07,02,08,37,434.00
2014,07,02,08,38,435.50
2014,07,02,08,39,438.50
2014,07,02,08,40,438.40
2014,07,02,08,41,438.80
2014,07,02,08,42,409.50
2014,07,02,08,43,450.60
2014,07,02,08,44,454.20
2014,07,02,08,45,455.00
2014,07,02,08,46,456.00
2014,07,02,08,47,459.60
2014,07,02,08,48,461.80
2014,07,02,08,49,462.00
2014,07,02,08,50,464.60
2014,07,02,08,51,468.20
2014,07,02,08,52,469.80
2014,07,02,08,53,472.00
2014,07,02,08,54,474.90
2014,07,02,08,55,477.50
2014,07,02,08,56,479.90
2014,07,02,08,57,482.40
2014,07,02,08,58,485.60
2014,07,02,08,59,487.80
2014,07,02,09,00,489.50
2014,07,02,09,01,492.60
2014,07,02,09,02,495.50
2014,07,02,09,03,500.50
2014,07,02,09,04,503.00
2014,07,02,09,05,503.20
2014,07,02,09,06,504.80
2014,07,02,09,07,506.00
2014,07,02,09,08,507.30
2014,07,02,09,09,511.00
2014,07,02,09,10,514.70
2014,07,02,09,11,515.60
2014,07,02,09,12,519.30
2014,07,02,09,13,521.60
2014,07,02,09,14,525.60
2014,07,02,09,15,526.40
2014,07,02,09,16,528.30
2014,07,02,09,17,530.70
2014,07,02,09,18,533.10
2014,07,02,09,19,535.00
2014,07,02,09,20,537.20
2014,07,02,09,21,538.50
2014,07,02,09,22,541.00
2014,07,02,09,23,544.00
2014,07,02,09,24,545.00
2014,07,02,09,25,548.00
2014,07,02,09,26,548.00
2014,07,02,09,27,550.30
2014,07,02,09,28,555.50
2014,07,02,09,29,558.20
2014,07,02,09,30,560.50
2014,07,02,09,31,562.70
2014,07,02,09,32,563.10
2014,07,02,09,33,565.00
2014,07,02,09,34,568.80
2014,07,02,09,35,570.50
2014,07,02,09,36,573.50
2014,07,02,09,37,575.00
2014,07,02,09,38,576.80
2014,07,02,09,39,578.60
2014,07,02,09,40,582.60
2014,07,02,09,41,585.20
2014,07,02,09,42,588.00
2014,07,02,09,43,589.00
2014,07,02,09,44,592.80
2014,07,02,09,45,594.10
2014,07,02,09,46,588.70
2014,07,02,09,47,553.30
2014,07,02,09,48,575.00
2014,07,02,09,49,576.00
2014,07,02,09,50,577.00
2014,07,02,09,51,582.30
2014,07,02,09,52,581.60
2014,07,02,09,53,614.30
2014,07,02,09,54,610.80
2014,07,02,09,55,613.80
2014,07,02,09,56,617.10
2014,07,02,09,57,617.70
2014,07,02,09,58,618.60
2014,07,02,09,59,626.40
2014,07,02,10,00,590.30
2014,07,02,10,01,622.60
2014,07,02,10,02,624.00
2014,07,02,10,03,632.30
2014,07,02,10,04,641.30
2014,07,02,10,05,644.30
2014,07,02,10,06,623.60
2014,07,02,10,07,626.30
2014,07,02,10,08,631.30
2014,07,02,10,09,610.90
2014,07,02,10,10,613.10
2014,07,02,10,11,658.30
2014,07,02,10,12,662.00
2014,07,02,10,13,659.40
2014,07,02,10,14,659.60
2014,07,02,10,15,664.40
2014,07,02,10,16,635.40
2014,07,02,10,17,630.50
2014,07,02,10,18,685.90
2014,07,02,10,19,682.40
2014,07,02,10,20,679.90
2014,07,02,10,21,682.20
2014,07,02,10,22,684.60
2014,07,02,10,23,687.20
2014,07,02,10,24,689.00
2014,07,02,10,25,690.30
2014,07,02,10,26,691.00
2014,07,02,10,27,691.00
2014,07,02,10,28,694.00
2014,07,02,10,29,694.60
2014,07,02,10,30,696.00
2014,07,02,10,31,698.60
2014,07,02,10,32,701.00
2014,07,02,10,33,716.20
2014,07,02,10,34,704.90
2014,07,02,10,35,707.00
2014,07,02,10,36,707.30
2014,07,02,10,37,708.00
2014,07,02,10,38,708.00
2014,07,02,10,39,708.00
2014,07,02,10,40,709.50
2014,07,02,10,41,716.20
2014,07,02,10,42,734.80
2014,07,02,10,43,718.00
2014,07,02,10,44,725.20
2014,07,02,10,45,725.00
2014,07,02,10,46,726.00
2014,07,02,10,47,722.20
2014,07,02,10,48,723.70
2014,07,02,10,49,722.30
2014,07,02,10,50,726.50
2014,07,02,10,51,732.20
2014,07,02,10,52,731.00
2014,07,02,10,53,732.30
2014,07,02,10,54,736.80
2014,07,02,10,55,739.80
2014,07,02,10,56,748.40
2014,07,02,10,57,732.60
2014,07,02,10,58,700.40
2014,07,02,10,59,703.10
2014,07,02,11,00,734.60
2014,07,02,11,01,751.00
2014,07,02,11,02,751.90
2014,07,02,11,03,754.00
2014,07,02,11,04,755.00
2014,07,02,11,05,758.00
2014,07,02,11,06,758.00
2014,07,02,11,07,756.70
2014,07,02,11,08,761.30
2014,07,02,11,09,758.50
2014,07,02,11,10,759.30
2014,07,02,11,11,762.80
2014,07,02,11,12,768.80
2014,07,02,11,13,771.00
2014,07,02,11,14,772.00
2014,07,02,11,15,533.90
2014,07,02,11,16,479.50
2014,07,02,11,17,773.30
2014,07,02,11,18,775.60
2014,07,02,11,19,777.80
2014,07,02,11,20,778.00
2014,07,02,11,21,779.00
2014,07,02,11,22,781.60
2014,07,02,11,23,782.10
2014,07,02,11,24,784.60
2014,07,02,11,25,787.40
2014,07,02,11,26,789.50
2014,07,02,11,27,795.00
2014,07,02,11,28,795.00
2014,07,02,11,29,795.80
2014,07,02,11,30,795.10
2014,07,02,11,31,795.00
2014,07,02,11,32,795.80
2014,07,02,11,33,798.80
2014,07,02,11,34,800.00
2014,07,02,11,35,801.30
2014,07,02,11,36,804.30
2014,07,02,11,37,805.00
2014,07,02,11,38,809.00
2014,07,02,11,39,808.50
2014,07,02,11,40,808.10
2014,07,02,11,41,810.00
2014,07,02,11,42,812.60
2014,07,02,11,43,814.00
2014,07,02,11,44,814.00
2014,07,02,11,45,812.00
2014,07,02,11,46,812.50
2014,07,02,11,47,814.00
2014,07,02,11,48,815.00
2014,07,02,11,49,816.00
2014,07,02,11,50,816.80
2014,07,02,11,51,817.00
2014,07,02,11,52,822.70
2014,07,02,11,53,821.50
2014,07,02,11,54,823.00
2014,07,02,11,55,823.00
2014,07,02,11,56,823.00
2014,07,02,11,57,823.80
2014,07,02,11,58,824.00
2014,07,02,11,59,823.70
2014,07,02,12,00,828.00
2014,07,02,12,01,828.80
2014,07,02,12,02,830.00
2014,07,02,12,03,830.60
2014,07,02,12,04,831.00
2014,07,02,12,05,831.00
2014,07,02,12,06,833.60
2014,07,02,12,07,837.00
2014,07,02,12,08,838.10
2014,07,02,12,09,840.00
2014,07,02,12,10,838.10
2014,07,02,12,11,837.80
2014,07,02,12,12,838.00
2014,07,02,12,13,838.60
2014,07,02,12,14,841.50
2014,07,02,12,15,840.80
2014,07,02,12,16,842.00
2014,07,02,12,17,842.00
2014,07,02,12,18,845.00
2014,07,02,12,19,846.90
2014,07,02,12,20,846.40
2014,07,02,12,21,849.50
2014,07,02,12,22,849.50
2014,07,02,12,23,849.00
2014,07,02,12,24,851.00
2014,07,02,12,25,852.50
2014,07,02,12,26,853.90
2014,07,02,12,27,853.90
2014,07,02,12,28,853.20
2014,07,02,12,29,852.90
2014,07,02,12,30,852.60
2014,07,02,12,31,855.30
2014,07,02,12,32,857.60
2014,07,02,12,33,860.70
2014,07,02,12,34,862.60
2014,07,02,12,35,860.00
2014,07,02,12,36,860.40
2014,07,02,12,37,861.00
2014,07,02,12,38,863.60
2014,07,02,12,39,863.50
2014,07,02,12,40,863.00
2014,07,02,12,41,863.30
2014,07,02,12,42,865.80
2014,07,02,12,43,868.00
2014,07,02,12,44,868.00
2014,07,02,12,45,868.00
2014,07,02,12,46,869.50
2014,07,02,12,47,870.00
2014,07,02,12,48,872.00
2014,07,02,12,49,872.00
2014,07,02,12,50,872.00
2014,07,02,12,51,872.00
2014,07,02,12,52,872.00
2014,07,02,12,53,872.00
2014,07,02,12,54,797.90
2014,07,02,12,55,872.30
2014,07,02,12,56,874.00
2014,07,02,12,57,874.40
2014,07,02,12,58,877.10
2014,07,02,12,59,877.70
2014,07,02,13,00,875.50
2014,07,02,13,01,874.10
2014,07,02,13,02,875.00
2014,07,02,13,03,875.50
2014,07,02,13,04,859.60
2014,07,02,13,05,855.00
2014,07,02,13,06,877.80
2014,07,02,13,07,878.50
2014,07,02,13,08,879.00
2014,07,02,13,09,879.00
2014,07,02,13,10,879.00
2014,07,02,13,11,879.00
2014,07,02,13,12,880.50
2014,07,02,13,13,882.00
2014,07,02,13,14,879.70
2014,07,02,13,15,881.70
2014,07,02,13,16,881.90
2014,07,02,13,17,880.50
2014,07,02,13,18,880.10
2014,07,02,13,19,882.00
2014,07,02,13,20,880.10
2014,07,02,13,21,879.00
2014,07,02,13,22,877.20
2014,07,02,13,23,877.30
2014,07,02,13,24,878.50
2014,07,02,13,25,877.00
2014,07,02,13,26,879.00
2014,07,02,13,27,881.00
2014,07,02,13,28,881.00
2014,07,02,13,29,881.00
2014,07,02,13,30,881.00
2014,07,02,13,31,881.00
2014,07,02,13,32,881.40
2014,07,02,13,33,882.00
2014,07,02,13,34,881.40
2014,07,02,13,35,881.00
2014,07,02,13,36,881.00
2014,07,02,13,37,880.70
2014,07,02,13,38,879.00
2014,07,02,13,39,878.20
2014,07,02,13,40,878.00
2014,07,02,13,41,879.00
2014,07,02,13,42,881.30
2014,07,02,13,43,881.10
2014,07,02,13,44,881.00
2014,07,02,13,45,881.00
2014,07,02,13,46,880.20
2014,07,02,13,47,879.00
2014,07,02,13,48,877.70
2014,07,02,13,49,877.00
2014,07,02,13,50,877.00
2014,07,02,13,51,875.00
2014,07,02,13,52,874.80
2014,07,02,13,53,872.40
2014,07,02,13,54,870.00
2014,07,02,13,55,871.30
2014,07,02,13,56,873.60
2014,07,02,13,57,873.90
2014,07,02,13,58,869.60
2014,07,02,13,59,866.40
2014,07,02,14,00,865.00
2014,07,02,14,01,866.00
2014,07,02,14,02,867.00
2014,07,02,14,03,867.80
2014,07,02,14,04,867.10
2014,07,02,14,05,867.00
2014,07,02,14,06,867.00
2014,07,02,14,07,867.00
2014,07,02,14,08,867.50
2014,07,02,14,09,868.00
2014,07,02,14,10,867.20
2014,07,02,14,11,867.00
2014,07,02,14,12,866.70
2014,07,02,14,13,865.00
2014,07,02,14,14,865.00
2014,07,02,14,15,862.90
2014,07,02,14,16,862.30
2014,07,02,14,17,863.00
2014,07,02,14,18,861.20
2014,07,02,14,19,860.90
2014,07,02,14,20,855.60
2014,07,02,14,21,849.50
2014,07,02,14,22,858.00
2014,07,02,14,23,856.70
2014,07,02,14,24,856.00
2014,07,02,14,25,854.20
2014,07,02,14,26,854.00
2014,07,02,14,27,853.20
2014,07,02,14,28,851.00
2014,07,02,14,29,852.00
2014,07,02,14,30,853.00
2014,07,02,14,31,851.50
2014,07,02,14,32,850.90
2014,07,02,14,33,848.60
2014,07,02,14,34,846.00
2014,07,02,14,35,846.00
2014,07,02,14,36,846.00
2014,07,02,14,37,846.00
2014,07,02,14,38,844.50
2014,07,02,14,39,843.90
2014,07,02,14,40,842.00
2014,07,02,14,41,842.00
2014,07,02,14,42,841.20
2014,07,02,14,43,841.00
2014,07,02,14,44,840.70
2014,07,02,14,45,838.50
2014,07,02,14,46,838.00
2014,07,02,14,47,837.00
2014,07,02,14,48,837.00
2014,07,02,14,49,836.20
2014,07,02,14,50,833.90
2014,07,02,14,51,833.00
2014,07,02,14,52,831.40
2014,07,02,14,53,830.10
2014,07,02,14,54,830.80
2014,07,02,14,55,830.00
2014,07,02,14,56,829.20
2014,07,02,14,57,829.10
2014,07,02,14,58,828.70
2014,07,02,14,59,828.00
2014,07,02,15,00,826.10
2014,07,02,15,01,823.80
2014,07,02,15,02,823.00
2014,07,02,15,03,823.00
2014,07,02,15,04,821.90
2014,07,02,15,05,821.00
2014,07,02,15,06,819.40
2014,07,02,15,07,820.70
2014,07,02,15,08,817.00
2014,07,02,15,09,817.00
2014,07,02,15,10,816.60
2014,07,02,15,11,814.90
2014,07,02,15,12,814.00
2014,07,02,15,13,814.00
2014,07,02,15,14,810.40
2014,07,02,15,15,808.70
2014,07,02,15,16,807.00
2014,07,02,15,17,806.20
2014,07,02,15,18,803.90
2014,07,02,15,19,802.30
2014,07,02,15,20,802.00
2014,07,02,15,21,800.10
2014,07,02,15,22,797.70
2014,07,02,15,23,795.70
2014,07,02,15,24,795.00
2014,07,02,15,25,793.90
2014,07,02,15,26,793.00
2014,07,02,15,27,793.00
2014,07,02,15,28,789.40
2014,07,02,15,29,789.00
2014,07,02,15,30,788.70
2014,07,02,15,31,787.20
2014,07,02,15,32,783.90
2014,07,02,15,33,782.00
2014,07,02,15,34,782.00
2014,07,02,15,35,779.20
2014,07,02,15,36,776.70
2014,07,02,15,37,775.00
2014,07,02,15,38,775.00
2014,07,02,15,39,773.90
2014,07,02,15,40,772.30
2014,07,02,15,41,772.00
2014,07,02,15,42,771.90
2014,07,02,15,43,770.00
2014,07,02,15,44,769.40
2014,07,02,15,45,766.80
2014,07,02,15,46,765.00
2014,07,02,15,47,765.00
2014,07,02,15,48,763.40
2014,07,02,15,49,761.10
2014,07,02,15,50,759.30
2014,07,02,15,51,760.40
2014,07,02,15,52,759.00
2014,07,02,15,53,757.40
2014,07,02,15,54,754.70
2014,07,02,15,55,751.60
2014,07,02,15,56,750.90
2014,07,02,15,57,748.70
2014,07,02,15,58,747.00
2014,07,02,15,59,747.00
2014,07,02,16,00,747.00
2014,07,02,16,01,747.00
2014,07,02,16,02,744.60
2014,07,02,16,03,740.40
2014,07,02,16,04,739.70
2014,07,02,16,05,737.70
2014,07,02,16,06,737.00
2014,07,02,16,07,734.90
2014,07,02,16,08,733.00
2014,07,02,16,09,733.00
2014,07,02,16,10,729.40
2014,07,02,16,11,728.00
2014,07,02,16,12,726.30
2014,07,02,16,13,721.60
2014,07,02,16,14,721.00
2014,07,02,16,15,721.00
2014,07,02,16,16,717.90
2014,07,02,16,17,714.20
2014,07,02,16,18,711.70
2014,07,02,16,19,708.60
2014,07,02,16,20,703.30
2014,07,02,16,21,703.10
2014,07,02,16,22,703.70
2014,07,02,16,23,701.40
2014,07,02,16,24,685.90
2014,07,02,16,25,687.70
2014,07,02,16,26,690.40
2014,07,02,16,27,690.70
2014,07,02,16,28,693.50
2014,07,02,16,29,692.00
2014,07,02,16,30,671.40
2014,07,02,16,31,652.50
2014,07,02,16,32,674.60
2014,07,02,16,33,682.00
2014,07,02,16,34,681.20
2014,07,02,16,35,674.80
2014,07,02,16,36,664.10
2014,07,02,16,37,666.50
2014,07,02,16,38,668.10
2014,07,02,16,39,670.00
2014,07,02,16,40,668.90
2014,07,02,16,41,666.00
2014,07,02,16,42,659.80
2014,07,02,16,43,652.70
2014,07,02,16,44,657.50
2014,07,02,16,45,658.90
2014,07,02,16,46,655.30
2014,07,02,16,47,652.00
2014,07,02,16,48,652.00
2014,07,02,16,49,652.00
2014,07,02,16,50,652.00
2014,07,02,16,51,652.00
2014,07,02,16,52,636.60
2014,07,02,16,53,575.70
2014,07,02,16,54,575.70
2014,07,02,16,55,518.80
2014,07,02,16,56,536.80
2014,07,02,16,57,586.80
2014,07,02,16,58,599.70
2014,07,02,16,59,625.70
2014,07,02,17,00,633.30
2014,07,02,17,01,631.40
2014,07,02,17,02,617.30
2014,07,02,17,03,604.30
2014,07,02,17,04,599.00
2014,07,02,17,05,489.00
2014,07,02,17,06,454.00
2014,07,02,17,07,440.40
2014,07,02,17,08,359.00
2014,07,02,17,09,432.10